Weather History for KSAT - May, 2011

Change the Weather History Date:

Wednesday, May 11, 2011

  Actual Average Record
Temperature  
Mean Temperature 83 °F 76 °F  
Max Temperature 91 °F 86 °F 100 °F (1967)
Min Temperature 74 °F 66 °F 47 °F (1981)
Degree Days  
Heating Degree Days 0 0  
Month to date heating degree days 13 0  
Since 1 July heating degree days 1368 1494  
Cooling Degree Days 18 11  
Month to date cooling degree days 114 106  
Year to date cooling degree days 647 365  
Growing Degree Days 32 (Base 50)    
Moisture  
Dew Point 69 °F    
Average Humidity 67    
Maximum Humidity 87    
Minimum Humidity 46    
Precipitation  
Precipitation 0.00 in 0.12 in 1.88 in (1899)
Month to date precipitation T 1.27  
Year to date precipitation 3.19 9.23  
Snow  
Snow 0.00 in - - ()
Month to date snowfall 0.0  
Since 1 July snowfall 0.4  
Snow Depth 0.00 in    
Sea Level Pressure  
Sea Level Pressure 29.73 in    
Wind  
Wind Speed 14 mph (SE)    
Max Wind Speed 24 mph    
Max Gust Speed 33 mph    
Visibility 9 miles    
Events      
T = Trace of Precipitation, MM = Missing Value Source: NWS Daily Summary

Daily Weather History Graph

Daily Weather History Graph

Search for Another Location

Airport or City:

Trip Planner

Search our weather history database for the weather conditions in past years. The results will help you decide how hot, cold, wet, or windy it might be!

Date:

Astronomy

May. 11, 2011 Rise Set
Actual Time 6:44 AM CDT 8:16 PM CDT
Civil Twilight 6:18 AM CDT 8:42 PM CDT
Nautical Twilight 5:47 AM CDT 9:13 PM CDT
Astronomical Twilight 5:15 AM CDT 9:45 PM CDT
Moon 2:18 PM CDT (5/11) 2:24 AM CDT (5/11)
Length of Visible Light 14h 24m
Length of Day
13h 32m
First Quarter, 60% of the Moon is Illuminated
May 11
First Quarter
May 17
Full
May 24
Last Quarter
Jun 1
New
Jun 8
First Quarter

Hourly Weather History & Observations

Time (CDT) Temp. Heat Index Dew Point Humidity Pressure Visibility Wind Dir Wind Speed Gust Speed Precip Events Conditions
12:53 AM 75.9 °F - 70.0 °F 82% 29.72 in 8.0 mi SE 16.1 mph 21.9 mph N/A   Mostly Cloudy
1:00 AM 75.2 °F - 69.8 °F 83% 29.78 in 8.0 mi SE 13.8 mph - N/A   Mostly Cloudy
1:53 AM 75.9 °F - 70.0 °F 82% 29.72 in 8.0 mi SSE 13.8 mph - N/A   Mostly Cloudy
2:53 AM 75.0 °F - 70.0 °F 84% 29.70 in 8.0 mi SE 10.4 mph - N/A   Mostly Cloudy
3:00 AM 75.2 °F - 69.8 °F 83% 29.75 in 8.0 mi SE 11.5 mph - N/A   Partly Cloudy
3:53 AM 75.0 °F - 70.0 °F 84% 29.69 in 8.0 mi ESE 9.2 mph - N/A   Mostly Cloudy
4:09 AM 75.2 °F - 69.8 °F 83% 29.74 in 7.0 mi ESE 12.7 mph - N/A   Mostly Cloudy
4:49 AM 75.2 °F - 71.6 °F 89% 29.75 in 7.0 mi SE 11.5 mph - N/A   Mostly Cloudy
4:53 AM 75.0 °F - 71.1 °F 87% 29.69 in 7.0 mi SE 12.7 mph - N/A   Mostly Cloudy
5:53 AM 75.2 °F - 71.6 °F 89% 29.75 in 7.0 mi SE 11.5 mph - N/A   Mostly Cloudy
6:53 AM 75.9 °F - 71.1 °F 85% 29.70 in 7.0 mi SSE 16.1 mph 25.3 mph N/A   Overcast
7:08 AM 75.2 °F - 71.6 °F 89% 29.75 in 8.0 mi SE 15.0 mph 21.9 mph N/A   Overcast
7:53 AM 75.9 °F - 71.1 °F 85% 29.70 in 8.0 mi SE 12.7 mph - N/A   Overcast
8:53 AM 77.0 °F - 71.1 °F 82% 29.72 in 7.0 mi SE 9.2 mph - N/A   Overcast
9:53 AM 79.0 °F - 71.1 °F 77% 29.74 in 7.0 mi SSE 15.0 mph - N/A   Overcast
10:10 AM 80.6 °F 84.6 °F 71.6 °F 74% 29.79 in 7.0 mi SSE 11.5 mph - N/A   Overcast
10:33 AM 80.6 °F 83.9 °F 69.8 °F 70% 29.79 in 10.0 mi SSE 13.8 mph - N/A   Overcast
10:53 AM 80.1 °F 83.2 °F 70.0 °F 71% 29.74 in 10.0 mi SSE 18.4 mph - N/A   Overcast
11:17 AM 80.6 °F 82.7 °F 66.2 °F 61% 29.79 in 10.0 mi South 21.9 mph 28.8 mph N/A   Overcast
11:53 AM 82.0 °F 85.5 °F 69.1 °F 65% 29.75 in 10.0 mi South 16.1 mph - N/A   Mostly Cloudy
12:53 PM 84.9 °F 88.2 °F 68.0 °F 57% 29.73 in 10.0 mi SSE 13.8 mph 23.0 mph N/A   Mostly Cloudy
1:53 PM 90.0 °F 92.4 °F 66.0 °F 45% 29.70 in 10.0 mi SSE 21.9 mph 33.4 mph N/A   Mostly Cloudy
2:53 PM 88.0 °F 90.3 °F 66.0 °F 48% 29.68 in 10.0 mi South 20.7 mph 29.9 mph N/A   Mostly Cloudy
3:53 PM 88.0 °F 89.6 °F 64.9 °F 46% 29.67 in 10.0 mi South 15.0 mph 25.3 mph N/A   Overcast
4:53 PM 88.0 °F 90.3 °F 66.0 °F 48% 29.67 in 10.0 mi South 10.4 mph - N/A   Overcast
5:53 PM 88.0 °F 90.7 °F 66.9 °F 49% 29.66 in 10.0 mi SSE 13.8 mph 25.3 mph N/A   Mostly Cloudy
6:53 PM 87.1 °F 90.6 °F 68.0 °F 53% 29.68 in 10.0 mi SE 13.8 mph - N/A   Mostly Cloudy
7:53 PM 84.9 °F 88.2 °F 68.0 °F 57% 29.70 in 10.0 mi SE 13.8 mph - N/A   Scattered Clouds
8:53 PM 82.9 °F 85.8 °F 68.0 °F 60% 29.73 in 10.0 mi SE 13.8 mph - N/A   Scattered Clouds
9:53 PM 80.1 °F 82.7 °F 68.0 °F 67% 29.74 in 10.0 mi ESE 15.0 mph - N/A   Scattered Clouds
10:53 PM 78.1 °F - 69.1 °F 74% 29.78 in 10.0 mi ESE 19.6 mph 24.2 mph N/A   Partly Cloudy
11:53 PM 78.1 °F - 70.0 °F 76% 29.80 in 10.0 mi ESE 13.8 mph - N/A   Overcast